Location: Beyler
(36.6560°N, 29.8619°E)
Time: 02:57:29
(UTC+00:00)

Daily predictions for brighter satellites

Satellite Brightness Start Highest point End
(mag) Time Altitude Azimuth Time Altitude Azimuth Time Altitude Azimuth
SJ 16-02 4.3 01:33:00 12° ESE 01:33:00 12° ESE 01:33:23 10° SE
NOSS 3-1 (C) 4.2 01:35:00 73° SSE 01:35:00 73° SSE 01:43:08 10° SSE
Cosmos 1980 Rocket 3.6 01:41:31 32° NE 01:41:31 32° NE 01:44:31 10° NNE
ATLAS 3B R/B 4.2 01:40:33 20° N 01:45:10 36° NE 01:52:07 10° ESE
Atlas Centaur 2 4.0 01:50:15 15° ESE 01:50:15 15° ESE 01:51:02 10° ESE
CZ-3 Stage 3 4.2 01:50:45 56° S 01:50:45 56° S 01:54:45 10° ESE
ATLAS 2AS CENTAUR R/B 3.8 01:59:55 32° N 01:59:55 32° N 02:04:09 10° NNE
Cosmos 44 Rocket 4.3 02:01:27 40° ESE 02:01:27 40° ESE 02:04:41 10° SE
Cosmos 1818 4.4 02:10:41 40° N 02:10:41 40° N 02:14:13 10° NNE
Cosmos 1302 Rocket 4.4 02:13:08 52° NNE 02:13:08 52° NNE 02:17:02 10° NNE
Lacrosse 4 Rocket 3.2 02:13:10 26° NE 02:13:59 28° ENE 02:17:31 10° ESE
Cosmos 2263 Rocket 2.8 02:18:15 23° N 02:21:42 55° ENE 02:27:11 10° SE
Cosmos 2266 Rocket 3.9 02:16:07 10° S 02:22:30 79° W 02:28:56 10° N
Cosmos 2285 Rocket 3.9 02:26:36 42° NNW 02:28:48 72° WSW 02:35:09 10° S
Cosmos 2227 Rocket 2.7 02:32:00 41° SW 02:32:00 41° SW 02:36:09 10° S
Delta 2 Rocket 3.3 02:35:44 76° SSE 02:35:44 76° SSE 02:39:38 10° E
SL-16 R/B 3.5 02:33:02 10° S 02:38:17 41° ESE 02:43:33 10° NE
Gbstr 26 Del rocket 3.1 02:40:12 62° NW 02:40:12 62° NW 02:45:17 10° NE
Cosmos 1655 Rocket 3.9 02:35:16 10° S 02:41:39 88° W 02:48:03 10° N
Cosmos 1437 Rocket 4.0 02:38:25 10° SSE 02:41:44 37° E 02:45:04 10° NNE
Cosmos 968 Rocket 3.8 02:46:01 43° WSW 02:46:01 43° WSW 02:50:26 10° S
ATLAS 2A CENTAUR R/B 3.8 02:45:28 20° SSW 02:47:00 24° S 02:53:55 10° ESE
Cosmos 2084 Rocket 3.7 02:45:19 22° SSW 02:48:03 69° ESE 02:52:19 10° NE
SL-08 RB Rocket 3.9 02:44:46 10° NNE 02:49:22 71° ESE 02:53:57 10° S
S3M 4.0 02:48:17 10° NNW 02:54:22 57° W 03:00:20 10° SSW
IRAS Rocket 4.5 02:49:33 10° N 02:54:44 43° WNW 02:57:56 22° SW
Cosmos 1484 Rocket 2.4 02:52:58 10° N 03:01:22 - SSW 02:56:16 63° NW
Cosmos 2219 3.1 02:53:44 23° NW 02:57:16 62° WSW 03:02:49 10° S
DELTA 2 R/B (1) 3.7 02:55:12 37° WNW 02:57:21 65° N 03:02:52 10° E
USA 215 3.6 02:53:30 10° NE 03:00:01 67° SE 03:06:29 10° SW
Cosmos 2333 Rocket 4.1 02:58:57 10° SSE 03:03:55 32° ESE 03:08:53 10° NE
H-2A R/B 3.7 03:01:23 10° NNW 03:02:39 16° NNW 03:02:39 16° NNW
BREEZE-M DEB (TANK) 4.5 02:57:51 23° W 03:05:16 43° NW 03:09:44 10° NE
Meteor 1-24 Rocket 4.1 03:01:22 10° SW 03:06:27 36° WNW 03:11:24 10° N
SJ 16-02 3.0 03:09:46 17° SW 03:09:46 17° SW 03:11:13 10° SSW
Cosmos 2278 3.6 03:03:22 10° SSW 03:09:00 88° WNW 03:14:41 10° NNE
Cosmos 1328 3.4 03:05:22 10° S 03:09:04 81° W 03:12:47 10° N
Cosmos 2221 Rocket 3.7 03:10:22 10° S 03:14:44 77° E 03:19:09 10° N
ARGOS 3.3 03:10:30 10° N 03:15:42 48° WNW 03:20:52 10° SW
ARIANE 5 R/B 3.5 03:11:35 10° NNE 03:16:32 50° E 03:21:29 10° S
Cosmos 2322 Rocket 3.0 03:12:24 10° S 03:17:54 55° ESE 03:23:24 10° NNE
Thor Agena Rocket 4.1 03:13:28 10° N 03:18:07 34° WNW 03:22:42 10° SW
Meteor 2-20 Rocket 4.3 03:13:12 10° NNW 03:18:55 59° W 03:24:29 10° S
Cosmos 1844 Rocket 4.3 03:16:15 10° N 03:21:20 34° ENE 03:26:21 10° SE
USA 281 3.3 03:15:50 10° S 03:22:15 58° WSW 03:28:44 10° NNW
Cosmos 1980 Rocket 3.6 03:23:21 18° NW 03:23:24 18° NW 03:27:06 10° NNW
YAOGAN 11 4.4 03:25:26 10° SSE 03:29:42 68° ENE 03:34:03 10° N
Sich 1 Rocket 3.6 03:26:44 10° N 03:31:14 88° E 03:35:45 10° S
IRS-1C 4.3 03:28:21 10° NNE 03:33:42 78° ESE 03:39:00 10° S
Atlas Centaur 2 2.6 03:32:24 13° WSW 03:35:10 26° SSW 03:38:15 10° SE
Nadezhda 2 Rocket 4.5 03:28:51 10° SSW 03:35:14 74° W 03:41:36 10° N
Cosmos 1378 Rocket 4.0 03:31:20 10° SSW 03:35:26 37° W 03:39:32 10° N
ATLAS 3B R/B 3.2 03:28:38 10° NW 03:36:11 52° WSW 03:43:24 10° S
Cosmos 1674 Rocket 3.8 03:33:17 10° SSW 03:37:22 44° W 03:41:31 10° N
Cosmos 1025 Rocket 3.1 03:33:55 10° S 03:38:07 80° E 03:42:23 10° N
H-2A R/B 1.4 03:36:35 10° N 03:39:02 74° WNW 03:41:28 10° SSW
ARIANE 6 FM1 Upper Stage 3.5 03:39:49 10° WSW 03:43:33 31° NW 03:47:22 10° NNE
COSMO-SKYMED 1 2.8 03:39:27 10° S 03:43:38 50° W 03:47:52 10° NNW
Cosmos 371 Rocket 3.7 03:39:35 10° NNW 03:44:07 42° WSW 03:48:38 10° S
Okean 2 Rocket 3.2 03:42:35 10° NNW 03:46:58 56° W 03:51:17 10° S
Cosmos 1486 Rocket 4.2 03:42:15 10° NNW 03:47:28 78° ENE 03:52:41 10° SSE
NOAA 12 4.3 03:42:55 10° N 03:48:02 48° WNW 03:53:06 10° SW
NOSS 2-1 (D) 4.3 03:44:37 10° NNW 03:48:47 64° ENE 03:54:37 10° SE
Cosmos 2219 Rocket 3.8 03:43:49 10° S 03:49:00 40° ESE 03:54:12 10° NE
In-Cosmos 22 Rocket 4.4 03:43:18 10° S 03:49:07 83° E 03:54:54 10° N
Cosmos 332 Rocket 4.3 03:44:57 10° NNW 03:49:48 66° ENE 03:54:36 10° SSE
Lacrosse 4 Rocket 2.7 03:49:00 11° WNW 03:51:56 21° WSW 03:55:01 10° SSW
Cosmos 2227 4.2 03:50:28 10° NNW 03:56:09 77° WSW 04:01:50 10° SSE
CRYOSAT 2 4.4 03:51:53 10° S 03:56:44 66° W 04:01:35 10° N
Cosmos 2098 Rocket 2.3 03:53:56 10° NNW 03:57:25 63° W 04:00:25 10° S
USA 59 Rocket 0.6 03:55:02 10° NNW 03:59:18 78° ENE 04:05:24 10° SE
Nadezhda 1 Rocket 4.1 03:57:17 10° N 04:03:27 82° E 04:09:30 10° S
Cosmos 2263 Rocket 3.6 04:01:29 10° WNW 04:05:03 17° W 04:08:36 10° SW
Cosmos 2333 4.4 04:00:14 10° SSW 04:05:53 80° ESE 04:11:32 10° NNE
Cosmos 2360 Rocket 2.2 04:04:25 10° SSW 04:09:59 67° WNW 04:15:35 10° NNE
Cosmos 1455 Rocket 3.4 04:05:43 10° N 04:10:03 69° E 04:14:20 10° SSE
Cosmos 1709 Rocket 4.4 04:03:58 10° S 04:10:16 75° E 04:16:32 10° N
